When you browse on this site, cookies collect data to enhance your experience and personalize the content and advertising you see.
Visit our Privacy Policy to learn more. By continuing to use the site, you agree to this use of cookies and data.
  • In Spain
  • List of Countries
  • For 7 days
  • Water Temperature
  • Weather Map
  • Weather Widgets
  • user-avatar
    Login

    Hourly Weather Grinevo

    Today, 30 May, Saturday

    Time Temperature Precipitation Wind Pressure Humidity
    00:00 +13°C° 0.1 mm 5 mps 738 mmHg 91%
    01:00 +13°C° 0.1 mm 5 mps 738 mmHg 93%
    02:00 +13°C° 0.1 mm 5 mps 738 mmHg 94%
    03:00 +13°C° 0 mm 5 mps 737 mmHg 94%
    04:00 +13°C° 0 mm 6 mps 737 mmHg 93%
    05:00 +13°C° 0 mm 6 mps 737 mmHg 93%
    06:00 +13°C° 0 mm 6 mps 736 mmHg 92%
    07:00 +14°C° 0 mm 7 mps 736 mmHg 90%
    08:00 +14°C° 0 mm 7 mps 736 mmHg 89%
    09:00 +14°C° 0.1 mm 7 mps 736 mmHg 90%
    10:00 +14°C° 0.1 mm 7 mps 736 mmHg 90%
    11:00 +14°C° 0.1 mm 7 mps 735 mmHg 91%
    12:00 +13°C° 0.3 mm 8 mps 735 mmHg 91%
    13:00 +13°C° 0.3 mm 8 mps 735 mmHg 92%
    14:00 +13°C° 0.3 mm 8 mps 735 mmHg 92%
    15:00 +13°C° 0.3 mm 9 mps 734 mmHg 93%
    16:00 +13°C° 0.3 mm 9 mps 734 mmHg 93%
    17:00 +13°C° 0.3 mm 9 mps 733 mmHg 93%
    18:00 +13°C° 1 mm 10 mps 733 mmHg 93%
    19:00 +13°C° 1 mm 10 mps 733 mmHg 94%
    20:00 +13°C° 1 mm 10 mps 733 mmHg 94%
    21:00 +13°C° 2.7 mm 9 mps 733 mmHg 94%
    22:00 +12°C° 2.7 mm 8 mps 733 mmHg 95%
    23:00 +12°C° 2.7 mm 8 mps 734 mmHg 96%

    Tomorrow, 31 May, Sunday

    Time Temperature Precipitation Wind Pressure Humidity
    00:00 +12°C° 1.9 mm 7 mps 734 mmHg 96%
    01:00 +13°C° 1.9 mm 6 mps 734 mmHg 96%
    02:00 +13°C° 1.9 mm 5 mps 734 mmHg 96%
    03:00 +11°C° 1.8 mm 6 mps 734 mmHg 96%
    04:00 +11°C° 1.8 mm 6 mps 734 mmHg 96%
    05:00 +10°C° 1.8 mm 6 mps 734 mmHg 96%
    06:00 +10°C° 1 mm 7 mps 734 mmHg 95%
    07:00 +10°C° 1 mm 7 mps 734 mmHg 95%
    08:00 +10°C° 1 mm 8 mps 735 mmHg 95%
    09:00 +10°C° 1.4 mm 8 mps 735 mmHg 94%
    10:00 +9°C° 1.4 mm 8 mps 736 mmHg 94%
    11:00 +9°C° 1.4 mm 8 mps 736 mmHg 93%
    12:00 +9°C° 0.7 mm 7 mps 736 mmHg 91%
    13:00 +10°C° 0.7 mm 6 mps 737 mmHg 88%
    14:00 +10°C° 0.7 mm 5 mps 737 mmHg 86%
    15:00 +12°C° 0.1 mm 5 mps 737 mmHg 83%
    16:00 +11°C° 0.1 mm 6 mps 738 mmHg 80%
    17:00 +13°C° 0.1 mm 6 mps 738 mmHg 78%
    18:00 +12°C° 0.1 mm 5 mps 739 mmHg 78%
    19:00 +10°C° 0.1 mm 5 mps 739 mmHg 79%
    20:00 +9°C° 0.1 mm 5 mps 739 mmHg 79%
    21:00 +8°C° 0 mm 5 mps 740 mmHg 80%
    22:00 +7°C° 0 mm 5 mps 740 mmHg 80%
    23:00 +5°C° 0 mm 5 mps 740 mmHg 81%

    Day after tomorrow, 1 June, Monday

    Time Temperature Precipitation Wind Pressure Humidity
    00:00 +5°C° 0 mm 5 mps 740 mmHg 81%
    01:00 +5°C° 0 mm 5 mps 740 mmHg 81%
    02:00 +3°C° 0 mm 5 mps 740 mmHg 81%
    03:00 +3°C° 0 mm 5 mps 740 mmHg 81%
    04:00 +3°C° 0 mm 5 mps 740 mmHg 81%
    05:00 +3°C° 0 mm 5 mps 740 mmHg 82%
    06:00 +5°C° 0 mm 5 mps 740 mmHg 77%
    07:00 +5°C° 0 mm 6 mps 740 mmHg 73%
    08:00 +7°C° 0 mm 6 mps 740 mmHg 68%
    09:00 +7°C° 0 mm 6 mps 741 mmHg 68%
    10:00 +8°C° 0 mm 6 mps 741 mmHg 67%
    11:00 +8°C° 0 mm 6 mps 741 mmHg 67%
    12:00 +8°C° 0.1 mm 6 mps 741 mmHg 71%
    13:00 +7°C° 0.1 mm 6 mps 741 mmHg 75%
    14:00 +7°C° 0.1 mm 6 mps 741 mmHg 79%
    15:00 +7°C° 0.1 mm 5 mps 741 mmHg 82%
    16:00 +7°C° 0.1 mm 5 mps 741 mmHg 84%
    17:00 +6°C° 0.1 mm 5 mps 741 mmHg 87%
    18:00 +6°C° 0.1 mm 5 mps 741 mmHg 88%
    19:00 +6°C° 0.1 mm 4 mps 741 mmHg 90%
    20:00 +7°C° 0.1 mm 3 mps 741 mmHg 91%
    21:00 +6°C° 0 mm 4 mps 741 mmHg 91%
    22:00 +6°C° 0 mm 4 mps 741 mmHg 91%
    23:00 +6°C° 0 mm 4 mps 741 mmHg 91%

    2 June, Tuesday

    Time Temperature Precipitation Wind Pressure Humidity
    00:00 +6°C° 0.1 mm 4 mps 741 mmHg 92%
    01:00 +5°C° 0.1 mm 4 mps 741 mmHg 94%
    02:00 +5°C° 0.1 mm 4 mps 740 mmHg 95%
    03:00 +5°C° 0 mm 4 mps 740 mmHg 94%
    04:00 +5°C° 0 mm 4 mps 740 mmHg 94%
    05:00 +5°C° 0 mm 5 mps 740 mmHg 93%
    06:00 +6°C° 0 mm 5 mps 740 mmHg 88%
    07:00 +8°C° 0 mm 5 mps 740 mmHg 83%
    08:00 +9°C° 0 mm 6 mps 740 mmHg 78%
    09:00 +10°C° 0.1 mm 6 mps 740 mmHg 74%
    10:00 +11°C° 0.1 mm 6 mps 740 mmHg 70%
    11:00 +12°C° 0.1 mm 7 mps 740 mmHg 66%
    12:00 +13°C° 0.1 mm 6 mps 740 mmHg 69%
    13:00 +11°C° 0.1 mm 6 mps 740 mmHg 72%
    14:00 +11°C° 0.1 mm 6 mps 739 mmHg 75%
    15:00 +11°C° 0 mm 6 mps 739 mmHg 76%
    16:00 +11°C° 0 mm 6 mps 739 mmHg 77%
    17:00 +11°C° 0 mm 6 mps 739 mmHg 77%
    18:00 +10°C° 0 mm 5 mps 739 mmHg 80%
    19:00 +9°C° 0 mm 5 mps 738 mmHg 82%
    20:00 +8°C° 0 mm 4 mps 738 mmHg 84%
    21:00 +8°C° 0 mm 5 mps 738 mmHg 83%
    22:00 +8°C° 0 mm 5 mps 738 mmHg 83%
    23:00 +9°C° 0 mm 5 mps 738 mmHg 82%

    3 June, Wednesday

    Time Temperature Precipitation Wind Pressure Humidity
    00:00 +8°C° 0.1 mm 5 mps 738 mmHg 84%
    01:00 +8°C° 0.1 mm 6 mps 737 mmHg 86%
    02:00 +8°C° 0.1 mm 6 mps 737 mmHg 87%
    03:00 +8°C° 0.4 mm 6 mps 736 mmHg 90%
    04:00 +8°C° 0.4 mm 6 mps 736 mmHg 93%
    05:00 +8°C° 0.4 mm 6 mps 736 mmHg 96%
    06:00 +8°C° 1.2 mm 6 mps 736 mmHg 96%
    07:00 +9°C° 1.2 mm 6 mps 736 mmHg 96%
    08:00 +9°C° 1.2 mm 6 mps 736 mmHg 97%
    09:00 +9°C° 1.5 mm 6 mps 736 mmHg 96%
    10:00 +10°C° 1.5 mm 5 mps 736 mmHg 96%
    11:00 +10°C° 1.5 mm 5 mps 736 mmHg 96%
    12:00 +10°C° 0.4 mm 5 mps 736 mmHg 96%
    13:00 +12°C° 0.4 mm 5 mps 736 mmHg 96%
    14:00 +12°C° 0.4 mm 5 mps 736 mmHg 95%
    15:00 +13°C° 0.2 mm 5 mps 735 mmHg 94%
    16:00 +14°C° 0.2 mm 5 mps 735 mmHg 92%
    17:00 +14°C° 0.2 mm 4 mps 735 mmHg 91%
    18:00 +14°C° 0.4 mm 3 mps 735 mmHg 92%
    19:00 +13°C° 0.4 mm 3 mps 735 mmHg 93%
    20:00 +13°C° 0.4 mm 2 mps 735 mmHg 94%
    21:00 +12°C° 0 mm 2 mps 735 mmHg 95%
    22:00 +12°C° 0 mm 1 mps 735 mmHg 95%
    23:00 +11°C° 0 mm 1 mps 736 mmHg 95%

    4 June, Thursday

    Time Temperature Precipitation Wind Pressure Humidity
    00:00 +11°C° 0 mm 1 mps 735 mmHg 95%
    01:00 +10°C° 0 mm 1 mps 735 mmHg 94%
    02:00 +10°C° 0 mm 1 mps 735 mmHg 94%
    03:00 +10°C° 0 mm 1 mps 735 mmHg 94%
    04:00 +10°C° 0 mm 1 mps 735 mmHg 94%
    05:00 +10°C° 0 mm 1 mps 735 mmHg 94%
    06:00 +12°C° 0 mm 2 mps 735 mmHg 90%
    07:00 +13°C° 0 mm 2 mps 735 mmHg 86%
    08:00 +15°C° 0 mm 2 mps 735 mmHg 83%
    09:00 +16°C° 0.2 mm 2 mps 736 mmHg 78%
    10:00 +16°C° 0.2 mm 3 mps 736 mmHg 74%
    11:00 +17°C° 0.2 mm 3 mps 736 mmHg 70%
    12:00 +17°C° 0.2 mm 3 mps 735 mmHg 69%
    13:00 +18°C° 0.2 mm 3 mps 735 mmHg 68%
    14:00 +18°C° 0.2 mm 3 mps 735 mmHg 67%
    15:00 +18°C° 0.2 mm 3 mps 735 mmHg 69%
    16:00 +18°C° 0.2 mm 2 mps 735 mmHg 72%
    17:00 +17°C° 0.2 mm 2 mps 735 mmHg 75%
    18:00 +16°C° 0.1 mm 2 mps 735 mmHg 80%
    19:00 +15°C° 0.1 mm 2 mps 735 mmHg 85%
    20:00 +13°C° 0.1 mm 2 mps 735 mmHg 90%
    21:00 +12°C° 0 mm 2 mps 735 mmHg 91%
    22:00 +12°C° 0 mm 2 mps 735 mmHg 92%
    23:00 +10°C° 0 mm 2 mps 735 mmHg 93%
    Show more